Location: Fontevrault
(47.1823°N, 0.0493°E)
Time: 04:36:08
(UTC+00:00)

Cosmos 1707 - Visible Passes

Search period start: 17 October 2021 00:00
Search period end: 27 October 2021 00:00
Orbit: 515 x 527 km, 82.5° (Epoch: 16 October)

Date Brightness Start Highest point End Pass type
(mag) Time Alt. Az. Time Alt. Az. Time Alt. Az.
17 Oct 6.1 03:32:31 10° ESE 03:33:58 12° E 03:35:25 10° ENE visible
17 Oct 2.7 05:05:24 10° SSW 05:09:15 60° W 05:13:08 10° N visible
18 Oct 6.2 03:20:14 10° E 03:20:44 10° E 03:21:15 10° ENE visible
18 Oct 2.6 04:52:05 10° SSW 04:55:57 70° W 04:59:52 10° N visible
19 Oct 2.6 04:38:46 10° SSW 04:42:40 81° W 04:46:36 10° N visible
20 Oct 2.6 04:27:11 25° S 04:29:23 88° E 04:33:18 10° N visible
21 Oct 2.8 04:15:32 62° SSE 04:16:05 76° E 04:20:00 10° NNE visible
21 Oct 4.7 05:51:44 10° WNW 05:52:28 10° WNW 05:53:14 10° NW visible
22 Oct 3.4 04:03:32 52° NE 04:03:32 52° NE 04:06:42 10° NNE visible
22 Oct 4.6 05:38:43 12° WNW 05:39:07 12° WNW 05:40:37 10° NW visible
23 Oct 4.4 03:51:17 29° NNE 03:51:17 29° NNE 03:53:22 10° NNE visible
23 Oct 4.7 05:26:28 13° NW 05:26:28 13° NW 05:27:43 10° NW visible
24 Oct 5.2 03:38:54 18° NNE 03:38:54 18° NNE 03:40:01 10° NNE visible
24 Oct 4.9 05:14:04 12° NW 05:14:04 12° NW 05:14:43 10° NNW visible
25 Oct 5.7 03:26:22 12° NNE 03:26:22 12° NNE 03:26:39 10° NNE visible
25 Oct 5.1 05:01:32 10° NNW 05:01:32 10° NNW 05:01:38 10° NNW visible
